Skip Page Navigation
NASA JPL Caltech
NASA Logo - Jet Propulsion Laboratory + View the NASA Portal
+ Center for Near-Earth Object Studies
JPL Home Earth Solar System Stars & Galaxies Technology
JPL Solar System Dynamics
BODIES ORBITS EPHEMERIDES TOOLS PHYSICAL DATA DISCOVERY FAQ SITE MAP
JPL Small-Body Database Browser
Search: [ help ]  
487031 (2014 OV30)
Classification: Main-belt Asteroid          SPK-ID: 2487031
Ephemeris | Orbit Diagram | Orbital Elements | Mission Design | Physical Parameters | Discovery Circumstances ]

[ show orbit diagram ]
Orbital Elements at Epoch 2459000.5 (2020-May-31.0) TDB
Reference: JPL 15 (heliocentric ecliptic J2000)
 Element Value Uncertainty (1-sigma)   Units 
e .02699959413483361 5.7201e-08  
a 2.805739421290691 4.8157e-08 au
q 2.72998559566774 1.7121e-07 au
i 6.262184377018899 6.8864e-06 deg
node 107.7021995937439 5.9374e-05 deg
peri 288.933039209373 0.00014639 deg
M 358.1359137623501 0.0001336 deg
tp 2459009.388591090222
(2020-Jun-08.88859109)
0.00063708 TDB
period 1716.601264388916
4.70
4.4195e-05
1.21e-07
d
yr
n .2097167277388407 5.3993e-09 deg/d
Q 2.881493246913643 4.9457e-08 au
  Orbit Determination Parameters
   # obs. used (total)      87  
   data-arc span      6945 days (19.01 yr)  
   first obs. used      2000-09-20  
   last obs. used      2019-09-26  
   planetary ephem.      DE431  
   SB-pert. ephem.      SB431-N16  
   condition code      0  
   norm. resid. RMS      .61232  
   source      ORB  
   producer      Otto Matic  
   solution date      2019-Nov-08 18:42:57  

Additional Information
 Earth MOID = 1.74493 au 
 Jupiter MOID = 2.23626 au 
 T_jup = 3.314 
[ hide covariance matrix ]
Orbital Elements at Epoch 2457591.5 (2016-Jul-22.0) TDB
Reference: JPL 15 (heliocentric ecliptic J2000)
 Element Value Uncertainty (1-sigma)   Units 
e .02730055294002437 5.7859e-08  
q 2.729031224267084 1.7295e-07 au
tp 2457265.751449828301
(2015-Aug-31.25144983)
0.00062171 TDB
node 107.8178583377256 5.9485e-05 deg
peri 283.3728318370884 0.00014383 deg
i 6.257147633294492 6.881e-06 deg
  Orbit Determination Parameters
   # obs. used (total)      87  
   data-arc span      6945 days (19.01 yr)  
   first obs. used      2000-09-20  
   last obs. used      2019-09-26  
   planetary ephem.      DE431  
   SB-pert. ephem.      SB431-N16  
   condition code      0  
   norm. resid. RMS      .61232  
   source      ORB  
   producer      Otto Matic  
   solution date      2019-Nov-08 18:42:57  

Additional Information
 Jupiter MOID = 2.23626 au 
 T_jup = 3.314 
Orbit Covariance (6×6)
  e q tp node peri i
e 3.347693888148527E-15 -9.633112311401838E-15 -4.122710217846153E-12 -4.039000842427061E-15 -7.749785789498467E-13 -2.599606896468653E-15
q -9.633112311401838E-15 2.991211950109042E-14 1.134980798243548E-11 1.176160610426703E-14 2.19233676513126E-12 1.130414436729556E-14
tp -4.122710217846153E-12 1.134980798243548E-11 3.865254407648317E-7 -1.532015137739574E-10 8.144982193082017E-8 -7.081723975136298E-13
node -4.039000842427061E-15 1.176160610426703E-14 -1.532015137739574E-10 3.538489316509788E-9 -3.549506962971518E-9 7.619876540269232E-11
peri -7.749785789498467E-13 2.19233676513126E-12 8.144982193082017E-8 -3.549506962971518E-9 2.068607942907874E-8 -7.58755245881427E-11
i -2.599606896468653E-15 1.130414436729556E-14 -7.081723975136298E-13 7.619876540269232E-11 -7.58755245881427E-11 4.734767708163544E-11

Ephemeris | Orbit Diagram | Orbital Elements | Mission Design | Physical Parameters | Discovery Circumstances ]

Physical Parameter Table
Parameter Symbol Value Units Sigma Reference Notes
absolute magnitude H 17.2   n/a MPO456347  

487031 (2014 OV30)          Discovered 2010-Oct-11 by Mt. Lemmon Survey at Mount Lemmon
Reference: Last Updated: 2017-03-14

Alternate Designations
 2014 OV30 = 2010 TV134 
Ephemeris | Orbit Diagram | Orbital Elements | Mission Design | Physical Parameters | Discovery Circumstances ]
ABOUT SSD CREDITS/AWARDS PRIVACY/COPYRIGHT GLOSSARY LINKS
FirstGov 2020-Aug-10 09:20 UT
(server date/time)  
NASA Home Page
Site Manager:   Ryan S. Park
Webmaster  Alan B. Chamberlin